• MPC Preparation (Info)

  • MPEC 2014-R93 : 2014 RD17

    The following Minor Planet Electronic Circular may be linked-to from your own Web pages, but must not otherwise be redistributed electronically.

    A form allowing access to any MPEC is at the bottom of this page.


    Read MPEC 2014-R92 Read MPEC 2014-R94


    M.P.E.C. 2014-R93                                Issued 2014 Sept. 13, 14:07 UT
    
         The Minor Planet Electronic Circulars contain information on unusual
             minor planets and routine data on comets.  They are published
       on behalf of Commission 20 of the International Astronomical Union by the
              Minor Planet Center, Smithsonian Astrophysical Observatory,
                              Cambridge, MA 02138, U.S.A.
    
                 Prepared using the Tamkin Foundation Computer Network
    
                                  MPC@CFA.HARVARD.EDU
                URL https://www.minorplanetcenter.net/    ISSN 1523-6714
    
                                       2014 RD17
    
    Observations:
         K14R17D* C2014 09 12.19622 23 05 52.11 +04 28 19.5          19.0 V ER093703
         K14R17D  C2014 09 12.20274 23 05 54.79 +04 28 55.6          18.5 V ER093703
         K14R17D  C2014 09 12.21575 23 06 00.28 +04 30 06.2          19.3 V ER093703
         K14R17D `C2014 09 12.70598 23 09 29.59 +05 14 41.0          18.9 RqER093D90
         K14R17D `C2014 09 12.71106 23 09 31.62 +05 15 07.0          19.0 RqER093D90
         K14R17D `C2014 09 12.71615 23 09 33.62 +05 15 31.6          18.4 RqER093D90
         K14R17D KC2014 09 12.85098423 10 37.40 +05 23 58.9          19.5 VtER093L04
         K14R17D KC2014 09 12.87253 23 10 47.40 +05 25 35.3                qER093J95
         K14R17D KC2014 09 12.88148723 10 49.19 +05 26 27.6          19.6 VtER093L04
         K14R17D KC2014 09 12.88495 23 10 52.29 +05 26 36.1                qER093J95
         K14R17D KC2014 09 12.88897923 10 52.02 +05 27 04.4          19.5 VtER093L04
         K14R17D KC2014 09 12.89783 23 10 57.35 +05 27 39.0          19.4 RqER093J95
         K14R17D KC2014 09 12.91303 23 11 03.65 +05 29 05.4          19.4 VqER093958
         K14R17D KC2014 09 12.91934 23 11 06.07 +05 29 36.1          19.6 VqER093958
         K14R17D KC2014 09 12.92571 23 11 08.55 +05 30 07.0          19.7 VqER093958
         K14R17D KC2014 09 13.01410723 11 41.47 +05 37 07.9          19.2 VqER093I93
         K14R17D KC2014 09 13.01719 23 11 41.47 +05 37 23.7          19.2 RqER093160
         K14R17D KC2014 09 13.01991 23 11 42.58 +05 37 35.8          19.1 RqER093160
         K14R17D KC2014 09 13.02265 23 11 43.55 +05 37 48.3          19.2 RqER093160
         K14R17D KC2014 09 13.02493323 11 45.51 +05 37 58.8          19.2 VqER093I93
         K14R17D KC2014 09 13.02541 23 11 44.55 +05 38 01.0          19.2 RqER093160
         K14R17D KC2014 09 13.03282923 11 48.45 +05 38 35.7          19.4 VqER093I93
         K14R17D KC2014 09 13.04082123 11 48.93 +05 41 39.6          19.6 RqER093K91
         K14R17D KC2014 09 13.04441723 11 50.28 +05 41 56.4          19.6 RqER093K91
         K14R17D KC2014 09 13.04806423 11 51.62 +05 42 13.7          18.9 RqER093K91
         K14R17D KC2014 09 13.05166223 11 52.97 +05 42 30.2          18.2 RqER093K91
         K14R17D KC2014 09 13.05414923 11 53.92 +05 42 41.9          18.7 RqER093K91
         K14R17D  C2014 09 13.48464 23 14 52.63 +06 13 13.2          19.2 RoER093300
         K14R17D  C2014 09 13.48709 23 14 53.52 +06 13 24.9          19.1 RoER093300
         K14R17D  C2014 09 13.48953 23 14 54.39 +06 13 35.8          19.0 RoER093300
    
    Observer details:
    160 Castelmartini.  Observers M. Jaeger, E. Prosperi, S. Prosperi, W. Vollmann.
        Measurer E. Prosperi.  0.35-m f/10 Schmidt-Cassegrain + CCD.
    300 Bisei Spaceguard Center--BATTeRS.  Observers A. Asami, S. Urakawa.  1.0-m
        f/3.0 reflector + CCD.
    703 Catalina Sky Survey.  Observer A. R. Gibbs.  Measurers E. J. Christensen,
        A. R. Gibbs, A. D. Grauer, R. E. Hill, J. A. Johnson, R. A. Kowalski,
        S. M. Larson, F. C. Shelly.  0.68-m Schmidt + CCD.
    958 Observatoire de Dax.  Observers P. Dupouy, J. B. de Vanssay.  Measurer
        P. Dupouy.  0.43-m f/2.7 reflector + CCD.
    D90 RAS Observatory, Moorook.  Observer K. Hills.  0.41-m f/9 Ritchey-Chretien
        + CCD.
    I93 St Pardon de Conques.  Observer F. Losse.  0.40-m f/3.7 reflector + CCD.
    J95 Great Shefford.  Observer P. Birtwhistle.  0.40-m f/6.0 Schmidt-Cassegrain
        + CCD.
    K91 Sutherland-LCOGT A.  Observers E. J. Christensen, S. M. Larson, T. Lister.
        Measurer T. Lister.  1.0-m f/8 Ritchey-Chretien + CCD.
    L04 ROASTERR-1 Observatory, Cluj-Napoca.  Observer L. Hudin.  0.3-m f/5.0
        reflector + CCD.
    
    Orbital elements:
    2014 RD17                                                Earth MOID = 0.0144 AU
    Epoch 2014 Dec. 9.0 TT = JDT 2457000.5                  MPC
    M  33.01084              (2000.0)            P               Q
    n   0.27468938     Peri.  329.11473     +0.65259650     +0.75728151
    a   2.3437330      Node   341.58340     -0.67777067     +0.56846760
    e   0.5778801      Incl.    4.60205     -0.33873991     +0.32151096
    P   3.59           H   24.3           G   0.15           U   7
    Residuals in seconds of arc
    140912 703  0.4+  0.2-    140912 L04  0.1+  0.2+    140913 160  0.7-  1.0-
    140912 703  0.7-  0.4+    140912 J95  0.3+  0.1+    140913 I93  0.3+  0.7-
    140912 703  0.4-  0.3+    140912 958  1.2+  0.7+    140913 K91  0.1+  0.0
    140912 D90  0.2+  0.1-    140912 958  1.5+  0.8+    140913 K91  0.2+  0.1-
    140912 D90  0.6+  0.8+    140912 958 (2.4+  0.9+)   140913 K91  0.2-  0.2+
    140912 D90  0.5+  0.3+    140913 I93  0.2+  0.0     140913 K91  0.2-  0.1-
    140912 L04  0.5-  0.2-    140913 160  0.7-  0.5+    140913 K91  0.1+  0.0
    140912 J95  0.6-  0.3-    140913 160  0.6+  0.3-    140913 300  0.5-  0.1-
    140912 L04  0.6+  0.3-    140913 160  0.2-  0.7-    140913 300  0.2-  0.7+
    140912 J95  0.3-  0.1-    140913 I93  0.3+  0.3-    140913 300  0.1-  0.7+
    
    Ephemeris:
    2014 RD17                a,e,i = 2.34, 0.58, 5                   q = 0.9893
    Date    TT    R. A. (2000) Decl.     Delta      r     Elong.  Phase     V
    2014 08 14    13 45 32.1 -30 13 24   0.1163  0.9900    75.3    98.1    23.1
    ...
    2014 08 29    16 44 36.3 -39 04 53   0.04198 1.0175    99.0    78.6    20.2
    ...
    2014 09 06    21 41 39.3 -12 03 25   0.04067 1.0465   160.4    18.8    18.4
    ...
    2014 09 12    23 04 15.9 +04 11 18   0.06819 1.0739   170.6     8.8    19.2
    2014 09 13    23 11 36.2 +05 37 12   0.07363 1.0789   170.0     9.3    19.4
    2014 09 14    23 17 57.2 +06 50 27   0.07922 1.0840   169.3     9.9    19.6
    ...
    2014 09 20    23 42 52.2 +11 21 52   0.1149  1.1168   167.3    11.4    20.5
    ...
    2014 09 28    23 59 07.9 +13 48 26   0.1671  1.1658   167.2    10.9    21.4
    ...
    2014 10 13    00 13 57.1 +14 53 08   0.2800  1.2695   164.1    12.4    22.8
    
    A. U. Tomatic                (C) Copyright 2014 MPC           M.P.E.C. 2014-R93
    

    Read MPEC 2014-R92 Read MPEC 2014-R94


    MPEC number:

    Enter an MPEC number in one of the following forms:

    • 1997-B01 (the full form)
    • J97B01 (the packed version of the full form)
    • B01 (the abbreviated form)